Regional Weather Roundup
Issued by NWS

Home | Current Version | Previous Version | Text Only | Print | Product List | Glossary Off
Versions: 1 2 3 4 5 6 7 8 9 10 11 12 13 14 15 16 17 18 19 20 21 22 23 24 25 26 27 28 29 30 31 32 33 34 35 36 37 38 39 40 41 42 43 44 45 46 47 48 49 50

469
ASUS43 KIND 060059
RWRIN

WEATHER ROUNDUP FOR INDIANA
NATIONAL WEATHER SERVICE INDIANAPOLIS IN
800 PM EST FRI FEB 05 2016

NOTE: "FAIR" INDICATES FEW OR NO CLOUDS BELOW 12,000 FEET WITH NO
SIGNIFICANT WEATHER AND/OR OBSTRUCTIONS TO VISIBILITY.

* - STATION DOES NOT REPORT WEATHER SUCH AS PRECIPITATION OR FOG.

+ - STATION NOT QUALITY CONTROLLED BY THE NATIONAL WEATHER SERVICE.
    USE DATA WITH CAUTION...ESPECIALLY DEWPOINT AND RELATIVE
    HUMIDITY OBSERVATIONS.

INZ001>003-010>013-019-020-060200-
NORTHWEST INDIANA

CITY           SKY/WX    TMP DP  RH WIND       PRES   REMARKS
RENSSELAER +   PTCLDY    30  23  74 CALM      30.36F

$$

LMZ046-743>745-060200-
SOUTHERN LAKE MICHIGAN

STATION/POSITION TIME  TEMP    WIND        PRES    WAVE
                       AIR SEA DIR/SP/G            HT
                 (UTC) (F)     (DEG/KT/KT) (MB)    (FT)
BURNS HARBOR     0000   30     300/  1/  2 1028.8S
MICHIGAN CITY    0000   30     280/  1/  2   N/A

$$

INZ004-005-014>016-021>024-060200-
NORTH CENTRAL INDIANA

CITY           SKY/WX    TMP DP  RH WIND       PRES   REMARKS
ELKHART          N/A     30  25  80 NW6       30.35F WCI  24
GOSHEN         MOCLDY    30  24  78 W8        30.34S WCI  22
PERU/GRISSOM   MOCLDY    28  25  86 W8        30.35S WCI  20
SOUTH BEND     CLOUDY    28  23  81 NW5       30.35F WCI  23

$$

INZ006>009-017-018-025>027-060200-
NORTHEAST INDIANA

CITY           SKY/WX    TMP DP  RH WIND       PRES   REMARKS
ANGOLA *+      CLOUDY    30  27  86 W7        30.31S WCI  23
FORT WAYNE     CLOUDY    31  23  72 W14       30.35S WCI  21

$$

INZ028-029-035-036-043>045-051>053-060200-
WEST CENTRAL INDIANA

CITY           SKY/WX    TMP DP  RH WIND       PRES   REMARKS
GREENCASTLE +  CLEAR     28  18  64 CALM      30.38F
LAFAYETTE      CLOUDY    28  21  75 CALM      30.38F
TERRE HAUTE    CLEAR     27  21  78 NE6       30.38F WCI  20

$$

INZ030>032-037>040-046>048-054>057-064-065-060200-
CENTRAL INDIANA

CITY           SKY/WX    TMP DP  RH WIND       PRES   REMARKS
GREENWOOD *+   CLEAR     30  27  86 NW6       30.37S WCI  24
INDIANAPOLIS   PTCLDY    27  21  78 NW8       30.36S WCI  19
-EAGLE CREEK   CLEAR     29  22  75 NW8       30.36F WCI  21
KOKOMO *+      CLEAR     28  21  74 W7        30.36F WCI  21
MT COMFORT *+  CLEAR     27  23  86 NW6       30.37S WCI  20
SHELBYVILLE    CLEAR     32  24  72 NW10      30.36R WCI  24

$$

INZ033-034-041-042-049-050-058-059-060200-
EAST CENTRAL INDIANA

CITY           SKY/WX    TMP DP  RH WIND       PRES   REMARKS
MUNCIE         CLEAR     30  23  75 NW6       30.35F WCI  24

$$

INZ060-061-067>069-081>083-085>088-060200-
SOUTHWEST INDIANA

CITY           SKY/WX    TMP DP  RH WIND       PRES   REMARKS
EVANSVILLE     CLEAR     40  25  55 CALM      30.38F
HUNTINGBURG *+ CLEAR     37  21  52 NW5       30.38S

$$

INZ062-063-066-070>080-084-089>092-060200-
SOUTH CENTRAL AND SOUTHEAST INDIANA

CITY           SKY/WX    TMP DP  RH WIND       PRES   REMARKS
BLOOMINGTON    CLEAR     31  22  69 NW3       30.37S
MADISON *+     CLOUDY    34  21  60 S3        30.36F
SEYMOUR +      CLOUDY    34  23  64 W7        30.36S WCI  28

$$





USA.gov is the U.S. government's official web portal to all federal, state and local government web resources and services.